Retour au catalogue

OPS 3165

ActifMilitaireGEO
NORAD 8482·PAYLOAD·🇺🇸 United States

Lancé Dec 14, 1975 depuis Cape Canaveral Space Force Station

Loading…

TLE

FraisSource: Space-Track

Époque: Sep 14, 2026, 15:06 UTC

1 08482U 75118A   26257.62931633 -.00000168  00000-0  00000-0 0  9995
2 08482   2.0732 255.2268 0033318  28.8273  86.3499  1.00456933 27353

Suivez OPS 3165 en temps réel avec AllMySat

Download on the App Store